| time (UTC) | temp F | wind direction | speed MPH | gust MPH | rain 1hr in | rain 24hr in | rain mn in | humidity % | barometer mb |
| 20260508200007 | 67 | 266 | 2.0 | 4.0 | 0.00 | 0.00 | 0.00 | 32 | 1012.1 |
| 20260508194510 | 67 | 274 | 1.0 | 5.0 | 0.00 | 0.00 | 0.00 | 33 | 1012.3 |
| 20260508193004 | 67 | 313 | 2.0 | 5.0 | 0.00 | 0.00 | 0.00 | 32 | 1012.5 |
| 20260508191526 | 66 | 247 | 2.0 | 5.0 | 0.00 | 0.00 | 0.00 | 31 | 1012.9 |
| 20260508190015 | 64 | 278 | 1.0 | 4.0 | 0.00 | 0.00 | 0.00 | 33 | 1013.1 |
| 20260508184512 | 65 | 276 | 1.0 | 6.0 | 0.00 | 0.00 | 0.00 | 34 | 1013.1 |
| 20260508183016 | 65 | 283 | 2.0 | 5.0 | 0.00 | 0.00 | 0.00 | 33 | 1013.2 |
| 20260508181507 | 64 | 259 | 2.0 | 5.0 | 0.00 | 0.00 | 0.00 | 34 | 1013.4 |
| 20260508180012 | 64 | 290 | 3.0 | 6.0 | 0.00 | 0.00 | 0.00 | 35 | 1013.6 |
| 20260508174521 | 64 | 308 | 2.0 | 4.0 | 0.00 | 0.00 | 0.00 | 38 | 1013.7 |
| 20260508173020 | 63 | 248 | 3.0 | 5.0 | 0.00 | 0.00 | 0.00 | 36 | 1013.8 |
| 20260508171515 | 62 | 274 | 2.0 | 4.0 | 0.00 | 0.00 | 0.00 | 38 | 1014.2 |
| 20260508170011 | 63 | 243 | 3.0 | 5.0 | 0.00 | 0.00 | 0.00 | 38 | 1014.4 |
| 20260508164511 | 63 | 245 | 3.0 | 5.0 | 0.00 | 0.00 | 0.00 | 36 | 1014.3 |
| 20260508163008 | 62 | 279 | 1.0 | 3.0 | 0.00 | 0.00 | 0.00 | 38 | 1014.4 |
| 20260508161525 | 61 | 250 | 2.0 | 4.0 | 0.00 | 0.00 | 0.00 | 39 | 1014.7 |
| 20260508160020 | 61 | 265 | 1.0 | 4.0 | 0.00 | 0.00 | 0.00 | 41 | 1014.9 |
| 20260508154539 | 60 | 274 | 2.0 | 6.0 | 0.00 | 0.00 | 0.00 | 42 | 1014.9 |
| 20260508153012 | 60 | 282 | 1.0 | 4.0 | 0.00 | 0.00 | 0.00 | 42 | 1015.0 |
| 20260508151514 | 59 | 270 | 2.0 | 5.0 | 0.00 | 0.00 | 0.00 | 43 | 1015.2 |
| 20260508150033 | 59 | 265 | 1.0 | 4.0 | 0.00 | 0.00 | 0.00 | 43 | 1015.4 |
| 20260508144524 | 58 | 297 | 2.0 | 4.0 | 0.00 | 0.00 | 0.00 | 43 | 1015.4 |
| 20260508143023 | 58 | 224 | 0.0 | 2.0 | 0.00 | 0.00 | 0.00 | 47 | 1015.5 |
| 20260508141524 | 57 | 227 | 0.0 | 4.0 | 0.00 | 0.00 | 0.00 | 45 | 1015.4 |
| 20260508140014 | 56 | 250 | 1.0 | 3.0 | 0.00 | 0.00 | 0.00 | 46 | 1015.5 |
| 20260508134513 | 55 | 245 | 1.0 | 2.0 | 0.00 | 0.00 | 0.00 | 47 | 1015.7 |
| 20260508133044 | 54 | 264 | 2.0 | 4.0 | 0.00 | 0.00 | 0.00 | 51 | 1015.7 |
| 20260508131526 | 53 | 266 | 1.0 | 2.0 | 0.00 | 0.00 | 0.00 | 54 | 1015.9 |
| 20260508130028 | 53 | 274 | 1.0 | 2.0 | 0.00 | 0.00 | 0.00 | 55 | 1016.0 |
| 20260508124524 | 52 | 285 | 1.0 | 2.0 | 0.00 | 0.00 | 0.00 | 53 | 1016.0 |
| 20260508123041 | 51 | 311 | 0.0 | 0.0 | 0.00 | 0.00 | 0.00 | 59 | 1015.9 |
| 20260508121531 | 49 | 318 | 0.0 | 0.0 | 0.00 | 0.00 | 0.00 | 67 | 1015.9 |
| 20260508120030 | 47 | 318 | 0.0 | 0.0 | 0.00 | 0.00 | 0.00 | 70 | 1015.8 |
| 20260508114527 | 44 | 319 | 0.0 | 0.0 | 0.00 | 0.00 | 0.00 | 78 | 1015.8 |
| 20260508113008 | 42 | 319 | 0.0 | 0.0 | 0.00 | 0.00 | 0.00 | 81 | 1015.5 |
| 20260508111504 | 41 | 319 | 0.0 | 0.0 | 0.00 | 0.00 | 0.00 | 83 | 1015.4 |
| 20260508110020 | 39 | 319 | 0.0 | 0.0 | 0.00 | 0.00 | 0.00 | 85 | 1015.3 |
| 20260508104519 | 39 | 319 | 0.0 | 0.0 | 0.00 | 0.00 | 0.00 | 83 | 1015.1 |
| 20260508103017 | 39 | 319 | 0.0 | 0.0 | 0.00 | 0.00 | 0.00 | 84 | 1015.0 |
| 20260508101513 | 40 | 319 | 0.0 | 0.0 | 0.00 | 0.00 | 0.00 | 83 | 1014.9 |
| 20260508100007 | 40 | 319 | 0.0 | 0.0 | 0.00 | 0.00 | 0.00 | 81 | 1014.8 |
| 20260508094522 | 41 | 319 | 0.0 | 0.0 | 0.00 | 0.00 | 0.00 | 80 | 1014.8 |
| 20260508093022 | 42 | 319 | 0.0 | 0.0 | 0.00 | 0.00 | 0.00 | 80 | 1014.7 |
| 20260508091522 | 43 | 319 | 0.0 | 0.0 | 0.00 | 0.00 | 0.00 | 75 | 1014.6 |
| 20260508090030 | 43 | 319 | 0.0 | 0.0 | 0.00 | 0.00 | 0.00 | 76 | 1014.5 |
| 20260508084512 | 45 | 319 | 0.0 | 0.0 | 0.00 | 0.00 | 0.00 | 73 | 1014.4 |
| 20260508083010 | 47 | 319 | 0.0 | 0.0 | 0.00 | 0.00 | 0.00 | 66 | 1014.3 |
| 20260508081527 | 48 | 319 | 0.0 | 0.0 | 0.00 | 0.00 | 0.00 | 60 | 1014.2 |
| 20260508080024 | 48 | 319 | 0.0 | 0.0 | 0.00 | 0.00 | 0.00 | 59 | 1014.1 |
| 20260508074525 | 49 | 319 | 0.0 | 1.0 | 0.00 | 0.00 | 0.00 | 58 | 1013.9 |
| 20260508073020 | 50 | 319 | 0.0 | 2.0 | 0.00 | 0.00 | 0.00 | 57 | 1013.7 |
| 20260508071514 | 50 | 319 | 0.0 | 4.0 | 0.00 | 0.01 | 0.00 | 58 | 1013.4 |
| 20260508070026 | 50 | 325 | 2.0 | 3.0 | 0.00 | 0.01 | 0.00 | 59 | 1013.3 |
| 20260508064531 | 50 | 315 | 2.0 | 3.0 | 0.00 | 0.01 | 0.00 | 60 | 1013.2 |
| 20260508063027 | 50 | 321 | 1.0 | 3.0 | 0.00 | 0.03 | 0.00 | 62 | 1013.1 |
| 20260508061529 | 50 | 321 | 2.0 | 2.0 | 0.00 | 0.05 | 0.00 | 64 | 1013.0 |
| 20260508060020 | 49 | 319 | 1.0 | 2.0 | 0.00 | 0.06 | 0.00 | 69 | 1012.8 |
| 20260508054522 | 49 | 319 | 1.0 | 1.0 | 0.00 | 0.06 | 0.00 | 71 | 1012.7 |
| 20260508053032 | 48 | 319 | 1.0 | 1.0 | 0.00 | 0.06 | 0.00 | 77 | 1012.6 |
| 20260508051528 | 47 | 222 | 1.0 | 1.0 | 0.00 | 0.06 | 0.00 | 83 | 1012.5 |
| 20260508050010 | 46 | 158 | 0.0 | 0.0 | 0.00 | 0.06 | 0.00 | 87 | 1012.4 |
| 20260508044505 | 47 | 159 | 0.0 | 0.0 | 0.00 | 0.06 | 0.00 | 87 | 1012.3 |
| 20260508043024 | 49 | 159 | 0.0 | 0.0 | 0.00 | 0.13 | 0.00 | 84 | 1012.1 |
| 20260508041524 | 49 | 158 | 0.0 | 0.0 | 0.00 | 0.15 | 0.00 | 83 | 1011.9 |
| 20260508040018 | 49 | 159 | 0.0 | 0.0 | 0.00 | 0.17 | 0.00 | 83 | 1011.8 |
| 20260508034516 | 50 | 158 | 0.0 | 0.0 | 0.00 | 0.18 | 0.17 | 82 | 1011.7 |
| 20260508033010 | 51 | 158 | 0.0 | 0.0 | 0.00 | 0.20 | 0.17 | 81 | 1011.7 |
| 20260508031511 | 51 | 158 | 0.0 | 0.0 | 0.00 | 0.20 | 0.17 | 79 | 1011.6 |
| 20260508030026 | 51 | 159 | 0.0 | 0.0 | 0.00 | 0.20 | 0.17 | 78 | 1011.5 |
| 20260508024547 | 52 | 158 | 0.0 | 0.0 | 0.00 | 0.20 | 0.17 | 76 | 1011.5 |
| 20260508023022 | 52 | 158 | 0.0 | 0.0 | 0.00 | 0.20 | 0.17 | 75 | 1011.5 |
| 20260508021519 | 53 | 158 | 0.0 | 0.0 | 0.00 | 0.20 | 0.17 | 74 | 1011.4 |
| 20260508020016 | 53 | 158 | 0.0 | 0.0 | 0.00 | 0.20 | 0.17 | 73 | 1011.4 |
| 20260508014526 | 54 | 158 | 0.0 | 0.0 | 0.00 | 0.20 | 0.17 | 72 | 1011.2 |
| 20260508013032 | 54 | 139 | 0.0 | 0.0 | 0.00 | 0.20 | 0.17 | 72 | 1011.0 |
| 20260508011526 | 55 | 139 | 0.0 | 1.0 | 0.00 | 0.20 | 0.17 | 70 | 1010.9 |
| 20260508010022 | 55 | 197 | 0.0 | 0.0 | 0.00 | 0.20 | 0.17 | 69 | 1010.7 |
| 20260508004535 | 56 | 198 | 0.0 | 0.0 | 0.00 | 0.20 | 0.17 | 68 | 1010.3 |
| 20260508003014 | 56 | 198 | 0.0 | 0.0 | 0.00 | 0.20 | 0.17 | 68 | 1010.0 |
| 20260508001537 | 57 | 197 | 0.0 | 0.0 | 0.00 | 0.20 | 0.17 | 65 | 1009.7 |
| 20260508000027 | 57 | 197 | 0.0 | 1.0 | 0.00 | 0.20 | 0.17 | 64 | 1009.6 |
| 20260507234526 | 58 | 215 | 0.0 | 0.0 | 0.00 | 0.20 | 0.17 | 61 | 1009.4 |
| 20260507233024 | 59 | 147 | 0.0 | 1.0 | 0.00 | 0.20 | 0.17 | 59 | 1009.1 |
| 20260507231522 | 61 | 357 | 0.0 | 0.0 | 0.00 | 0.20 | 0.17 | 43 | 1008.8 |
| 20260507230017 | 62 | 357 | 0.0 | 0.0 | 0.00 | 0.20 | 0.17 | 42 | 1008.6 |
| 20260507224527 | 62 | 356 | 0.0 | 0.0 | 0.00 | 0.20 | 0.17 | 41 | 1008.6 |
| 20260507223011 | 63 | 356 | 0.0 | 1.0 | 0.00 | 0.20 | 0.17 | 39 | 1008.5 |
| 20260507221504 | 63 | 60 | 0.0 | 1.0 | 0.00 | 0.20 | 0.17 | 40 | 1008.4 |
| 20260507220005 | 63 | 319 | 0.0 | 2.0 | 0.00 | 0.20 | 0.17 | 41 | 1008.4 |
| 20260507214521 | 63 | 77 | 0.0 | 1.0 | 0.00 | 0.20 | 0.17 | 42 | 1008.4 |
| 20260507213003 | 63 | 227 | 0.0 | 3.0 | 0.00 | 0.20 | 0.17 | 42 | 1008.4 |
| 20260507211512 | 63 | 254 | 0.0 | 0.0 | 0.00 | 0.20 | 0.17 | 44 | 1008.5 |
| 20260507210012 | 62 | 329 | 0.0 | 0.0 | 0.00 | 0.20 | 0.17 | 43 | 1008.7 |
| 20260507204508 | 62 | 314 | 0.0 | 3.0 | 0.00 | 0.20 | 0.17 | 39 | 1008.7 |
| 20260507203004 | 62 | 316 | 0.0 | 2.0 | 0.00 | 0.20 | 0.17 | 40 | 1008.6 |
| 20260507201504 | 62 | 338 | 0.0 | 1.0 | 0.00 | 0.20 | 0.17 | 39 | 1008.6 |